User: anonymous   Login
Location: Melbourne
(37.8170°S, 144.9670°E)
Time: 10:34:11
(UTC+10:00)
Language:

Explorer 11/Cluster Stage 4 - Orbit

View from above orbital plane
View from above orbital plane
View from above satellite
View from above satellite

Ground track
Ground track

The orbit data is extracted from the following two-line orbital elements,

1   107U 61013A   18111.60359709 +.00000804 +00000-0 +90905-4 0  9999
2   107 028.7869 309.6699 0548242 094.3806 271.9575 14.08557789855038
Epoch (UTC): 21 April 2018 14:29:10
Eccentricity: 0.0548242
inclination: 28.7869°
perigee height: 467 km
apogee height: 1261 km
right ascension of ascending node: 309.6699°
argument of perigee: 94.3806°
revolutions per day: 14.08557789
mean anomaly at epoch: 271.9575°
orbit number at epoch: 85503

The dashed part of the orbit path shows where the satellite is in the earth's shadow,  

DLR